Location: *
(48.8780°N, 19.2358°E)
Time: 21:35:04
(UTC+00:00)

STARLINK-34 - Pass Details

Date: 18 October 2019
Orbit: 548 x 551 km, 53.0° (Epoch: 20 November)

Event Time Altitude Azimuth Distance (km) Brightness Sun altitude
Rises 17:56:09 0° 277° (W) 2,720 8.7 -21.7°
Reaches altitude 10° 17:58:28 10° 284° (WNW) 1,827 7.4 -22.1°
Maximum altitude 18:02:29 46° 358° (N) 744 4.3 -22.7°
Enters shadow 18:02:47 45° 13° (NNE) 755 4.2 -22.8°
